"TOA5","MOW","CPU:UNC_MeetingWaters","DataHourly"
"TIMESTAMP","SondeTempC","SpCond","DOSat","DOmg","pH","Turb","BattVolt_Min"
"TS","","","","","","",""
"","Smp","Smp","Smp","Smp","Smp","Smp","Min"
"2003-05-01 00:00:00",18.8099994659,0.287000000477,82.0,7.63000011444,7.19999980927,12.8999996185,12.6000003815
"2003-05-01 01:00:00",18.5699996948,0.284000009298,86.8000030518,8.11999988556,7.19000005722,18.2000007629,12.5799999237
"2003-05-01 02:00:00",18.25,0.293000012636,84.3000030518,7.92999982834,7.30000019073,78.0999984741,12.5600004196
"2003-05-01 03:00:00",18.1200008392,0.273000001907,67.0,6.32999992371,7.21000003815,58.2000007629,12.5399999619
"2003-05-01 04:00:00",18.0499992371,0.24699999392,72.0999984741,6.80999994278,7.15999984741,56.2000007629,12.5100002289
"2003-05-01 05:00:00",17.9699993134,0.233999997377,61.7000007629,5.84000015259,7.11000013351,56.4000015259,12.4899997711
"2003-05-01 06:00:00",17.8500003815,0.252000004053,54.5,5.17000007629,7.03000020981,79.9000015259,12.470000267
"2003-05-01 07:00:00",17.7299995422,0.273999989033,63.9000015259,6.07999992371,6.98999977112,100.099998474,12.4600000381
"2003-05-01 08:00:00",17.7600002289,0.317999988794,64.6999969482,6.15000009537,7.03999996185,141.399993896,12.5
"2003-05-01 09:00:00",17.8099994659,0.32800000906,72.0,6.84000015259,7.11000013351,124.900001526,12.75
"2003-05-01 10:00:00",18.0599994659,0.32800000906,80.8000030518,7.63000011444,7.15000009537,86.5999984741,13.1000003815
"2003-05-01 11:00:00",18.6200008392,0.296000003815,88.3000030518,8.25,7.28000020981,33.7000007629,13.1800003052
"2003-05-01 12:00:00",19.0200004578,0.293999999762,92.5,8.56999969482,7.30000019073,18.6000003815,13.1400003433
"2003-05-01 13:00:00",19.4400005341,0.284999996424,91.8000030518,8.43000030518,7.38000011444,16.0,13.1000003815
"2003-05-01 14:00:00",19.9500007629,0.268000006676,94.5999984741,8.60000038147,7.38999986649,13.8000001907,13.0900001526
"2003-05-01 15:00:00",20.1700000763,0.25799998641,95.0,8.60000038147,7.40000009537,18.0,13.0699996948
"2003-05-01 16:00:00",20.1800003052,0.248999997973,94.0999984741,8.52000045776,7.38999986649,20.5,13.0399999619
"2003-05-01 17:00:00",20.1000003815,0.252999991179,85.4000015259,7.75,7.34000015259,15.1000003815,12.8000001907
"2003-05-01 18:00:00",19.9899997711,0.25799998641,74.5999984741,6.78000020981,7.30000019073,14.6999998093,12.7600002289
"2003-05-01 19:00:00",19.8999996185,0.264999985695,71.5999984741,6.51999998093,7.19000005722,16.5,12.6999998093
"2003-05-01 20:00:00",19.75,0.264999985695,71.3000030518,6.51000022888,7.13999986649,17.8999996185,12.6700000763
"2003-05-01 21:00:00",19.5200004578,0.266000002623,70.5999984741,6.48000001907,7.13000011444,17.2000007629,12.6499996185
"2003-05-01 22:00:00",19.2900009155,0.266999989748,70.8000030518,6.51999998093,7.11999988556,16.0,12.6400003433
"2003-05-01 23:00:00",19.0599994659,0.270000010729,67.5,6.25,7.09999990463,15.1999998093,12.6199998856
"2003-05-02 00:00:00",18.7900009155,0.27500000596,59.2999992371,5.51999998093,7.11999988556,13.8000001907,12.6000003815
"2003-05-02 01:00:00",18.6100006104,0.279000014067,66.3000030518,6.19999980927,7.11000013351,13.0,12.5799999237
"2003-05-02 02:00:00",18.3700008392,0.282999992371,67.1999969482,6.30999994278,7.11999988556,10.1000003815,12.5600004196
"2003-05-02 03:00:00",18.1700000763,0.287999987602,71.0999984741,6.69999980927,7.13999986649,8.39999961853,12.5399999619
"2003-05-02 04:00:00",17.9799995422,0.293000012636,73.3000030518,6.94000005722,7.19000005722,7.30000019073,12.5200004578
"2003-05-02 05:00:00",17.8199996948,0.294999986887,67.6999969482,6.42999982834,7.21999979019,6.09999990463,12.5
"2003-05-02 06:00:00",17.6200008392,0.300999999046,86.5999984741,8.26000022888,7.23999977112,6.09999990463,12.4799995422
"2003-05-02 07:00:00",17.3799991608,0.307999998331,87.8000030518,8.40999984741,7.26999998093,6.19999980927,12.4600000381
"2003-05-02 08:00:00",17.2399997711,0.31099998951,85.5,8.21000003815,7.28999996185,5.5,12.4399995804
"2003-05-02 09:00:00",17.1499996185,0.317000001669,86.5,8.31999969482,7.30000019073,5.59999990463,12.5699996948
"2003-05-02 10:00:00",17.3299999237,0.335000008345,93.1999969482,8.93999958038,7.34999990463,5.40000009537,12.8599996567
"2003-05-02 11:00:00",18.0499992371,0.347999989986,93.3000030518,8.81999969482,7.44999980927,5.40000009537,13.1999998093
"2003-05-02 12:00:00",18.8400001526,0.351000010967,95.5999984741,8.89000034332,7.40999984741,5.90000009537,13.1000003815
"2003-05-02 13:00:00",19.7800006866,0.333000004292,96.5999984741,8.81000041962,7.42999982834,6.40000009537,13.0600004196
"2003-05-02 14:00:00",20.6399993896,0.331000000238,100.300003052,9.0,7.40000009537,6.40000009537,13.029999733
"2003-05-02 15:00:00",21.2600002289,0.32800000906,93.6999969482,8.31000041962,7.34999990463,6.0,12.9899997711
"2003-05-02 16:00:00",21.2700004578,0.330000013113,96.6999969482,8.56000041962,7.32000017166,6.0,12.9200000763
"2003-05-02 17:00:00",21.0799999237,0.41400000453,97.3000030518,8.64999961853,7.32999992371,5.59999990463,12.8400001526
"2003-05-02 18:00:00",20.75,0.523000001907,94.9000015259,8.48999977112,7.32000017166,5.09999990463,12.7399997711
"2003-05-02 19:00:00",20.4500007629,0.550000011921,90.6999969482,8.15999984741,7.32000017166,5.69999980927,12.6899995804
"2003-05-02 20:00:00",20.2299995422,0.52999997139,84.5999984741,7.65000009537,7.32999992371,7.19999980927,12.6800003052
"2003-05-02 21:00:00",19.9899997711,0.486000001431,84.3000030518,7.65999984741,7.34999990463,6.5,12.6599998474
"2003-05-02 22:00:00",19.7399997711,0.423999994993,85.6999969482,7.82000017166,7.34000015259,6.69999980927,12.6400003433
"2003-05-02 23:00:00",19.5400009155,0.393999993801,83.1999969482,7.63000011444,7.34000015259,6.80000019073,12.6199998856
"2003-05-03 00:00:00",19.3600006104,0.368999987841,86.5,7.96000003815,7.32000017166,6.19999980927,12.6099996567
"2003-05-03 01:00:00",19.1399993896,0.352999985218,87.0999984741,8.05000019073,7.36000013351,5.40000009537,12.5799999237
"2003-05-03 02:00:00",18.9300003052,0.342999994755,88.8000030518,8.23999977112,7.38000011444,6.5,12.5600004196
"2003-05-03 03:00:00",18.7199993134,0.337000012398,87.5,8.15999984741,7.36000013351,7.09999990463,12.5399999619
"2003-05-03 04:00:00",18.5300006866,0.333000004292,87.0999984741,8.14999961853,7.36000013351,5.59999990463,12.5200004578
"2003-05-03 05:00:00",18.3299999237,0.328999996185,88.1999969482,8.28999996185,7.36000013351,5.90000009537,12.5
"2003-05-03 06:00:00",18.1100006104,0.342000007629,89.0,8.39999961853,7.36999988556,5.5,12.470000267
"2003-05-03 07:00:00",17.8999996185,0.368000000715,91.0999984741,8.63000011444,7.38999986649,5.5,12.4600000381
"2003-05-03 08:00:00",17.75,0.377999991179,89.5999984741,8.52000045776,7.38000011444,5.80000019073,12.4799995422
"2003-05-03 09:00:00",17.7600002289,0.386999994516,93.4000015259,8.88000011444,7.40999984741,5.69999980927,12.6899995804
"2003-05-03 10:00:00",17.9200000763,0.389999985695,97.9000015259,9.27000045776,7.44999980927,5.90000009537,12.9600000381
"2003-05-03 11:00:00",18.1200008392,0.381000012159,98.5,9.28999996185,7.48000001907,6.09999990463,13.0200004578
"2003-05-03 12:00:00",18.5499992371,0.361000001431,104.599998474,9.77999973297,7.51000022888,6.69999980927,12.9499998093
"2003-05-03 13:00:00",18.9099998474,0.340000003576,101.5,9.43000030518,7.51000022888,5.80000019073,13.1899995804
"2003-05-03 14:00:00",19.1299991608,0.335000008345,108.300003052,10.0100002289,7.55999994278,6.30000019073,12.8999996185
"2003-05-03 15:00:00",19.0799999237,0.335000008345,103.599998474,9.59000015259,7.57999992371,6.5,13.2100000381
"2003-05-03 16:00:00",19.3199996948,0.338999986649,108.099998474,9.94999980927,7.53999996185,7.0,13.0200004578
"2003-05-03 17:00:00",19.2700004578,0.356000006199,106.0,9.77000045776,7.51999998093,6.40000009537,12.8199996948
"2003-05-03 18:00:00",19.0499992371,0.377000004053,102.0,9.43999958038,7.51000022888,6.19999980927,12.720000267
"2003-05-03 19:00:00",18.7999992371,0.38299998641,97.5,9.06999969482,7.48999977112,6.0,12.6700000763
"2003-05-03 20:00:00",18.4500007629,0.412999987602,89.0999984741,8.35000038147,7.51000022888,5.69999980927,12.6499996185
"2003-05-03 21:00:00",18.2399997711,0.414999991655,91.3000030518,8.59000015259,7.48999977112,5.80000019073,12.6300001144
"2003-05-03 22:00:00",17.9899997711,0.398999989033,85.6999969482,8.10999965668,7.48000001907,5.90000009537,12.6099996567
"2003-05-03 23:00:00",17.7999992371,0.377000004053,89.5999984741,8.51000022888,7.46000003815,6.90000009537,12.6000003815
"2003-05-04 00:00:00",17.5,0.345999985933,86.8000030518,8.30000019073,7.42999982834,8.30000019073,12.5799999237
"2003-05-04 01:00:00",17.3199996948,0.330000013113,88.5,8.48999977112,7.44000005722,13.0,12.5699996948
"2003-05-04 02:00:00",17.0499992371,0.330000013113,87.5999984741,8.44999980927,7.46000003815,7.19999980927,12.5399999619
"2003-05-04 03:00:00",16.7999992371,0.340000003576,89.1999969482,8.64999961853,7.48000001907,6.30000019073,12.5200004578
"2003-05-04 04:00:00",16.5799999237,0.356000006199,89.5999984741,8.72999954224,7.48000001907,5.59999990463,12.5
"2003-05-04 05:00:00",16.3500003815,0.375,90.8000030518,8.88000011444,7.5,6.19999980927,12.470000267
"2003-05-04 06:00:00",16.1599998474,0.393999993801,89.5,8.80000019073,7.5,6.40000009537,12.4399995804
"2003-05-04 07:00:00",15.9300003052,0.412000000477,87.5,8.64000034332,7.48999977112,6.69999980927,12.4300003052
"2003-05-04 08:00:00",15.75,0.428000003099,85.4000015259,8.47000026703,7.48000001907,6.80000019073,12.4399995804
"2003-05-04 09:00:00",15.6300001144,0.441000014544,89.0999984741,8.85000038147,7.48999977112,10.1999998093,12.6499996185
"2003-05-04 10:00:00",15.5600004196,0.451000005007,92.0999984741,9.17000007629,7.5,7.09999990463,12.8400001526
"2003-05-04 11:00:00",15.6899995804,0.458000004292,93.0999984741,9.22999954224,7.51999998093,17.3999996185,13.2100000381
"2003-05-04 12:00:00",16.0699996948,0.460000008345,99.8000030518,9.82999992371,7.55000019073,8.0,13.3500003815
"2003-05-04 13:00:00",16.4799995422,0.458000004292,103.0,10.0500001907,7.57000017166,7.59999990463,13.3199996948
"2003-05-04 14:00:00",16.5699996948,0.455000013113,100.300003052,9.77000045776,7.57000017166,7.30000019073,13.0100002289
"2003-05-04 15:00:00",16.5300006866,0.453999996185,97.9000015259,9.53999996185,7.57000017166,6.80000019073,12.9399995804
"2003-05-04 16:00:00",16.4300003052,0.455000013113,97.3000030518,9.5,7.57000017166,6.80000019073,13.1599998474
"2003-05-04 17:00:00",16.3799991608,0.458999991417,98.5999984741,9.64000034332,7.57999992371,6.5,12.7899999619
"2003-05-04 18:00:00",16.3999996185,0.462000012398,96.5999984741,9.43999958038,7.57000017166,6.30000019073,12.75
"2003-05-04 19:00:00",16.3299999237,0.467000007629,94.6999969482,9.27999973297,7.55999994278,6.19999980927,12.7100000381
"2003-05-04 20:00:00",16.1700000763,0.470999985933,93.4000015259,9.17000007629,7.55000019073,6.40000009537,12.6499996185
"2003-05-04 21:00:00",15.9300003052,0.472000002861,91.3000030518,9.01000022888,7.53999996185,7.0,12.6400003433
"2003-05-04 22:00:00",15.6599998474,0.470999985933,91.0999984741,9.03999996185,7.53000020981,8.80000019073,12.6199998856
"2003-05-04 23:00:00",15.3900003433,0.47499999404,90.4000015259,9.02999973297,7.51999998093,10.8999996185,12.6000003815
"2003-05-05 00:00:00",15.1199998856,0.479999989271,89.6999969482,9.01000022888,7.51000022888,12.3999996185,12.5799999237
"2003-05-05 01:00:00",14.9899997711,0.481000006199,89.4000015259,9.0,7.51000022888,16.7999992371,12.5600004196
"2003-05-05 02:00:00",14.8699998856,0.472999989986,90.6999969482,9.17000007629,7.53000020981,18.7999992371,12.5399999619
"2003-05-05 03:00:00",14.6300001144,0.469000011683,88.8000030518,9.02000045776,7.5,18.3999996185,12.5200004578
"2003-05-05 04:00:00",14.5799999237,0.451999992132,91.4000015259,9.28999996185,7.51000022888,18.7000007629,12.5
"2003-05-05 05:00:00",14.4600000381,0.437000006437,91.9000015259,9.35999965668,7.53999996185,16.7999992371,12.470000267
"2003-05-05 06:00:00",14.3000001907,0.430000007153,94.5,9.65999984741,7.55000019073,14.8000001907,12.4399995804
"2003-05-05 07:00:00",14.2100000381,0.419999986887,92.3000030518,9.44999980927,7.55999994278,14.8000001907,12.4099998474
"2003-05-05 08:00:00",14.1099996567,0.405000001192,92.3000030518,9.47999954224,7.57000017166,13.3000001907,12.4099998474
"2003-05-05 09:00:00",14.1300001144,0.389999985695,95.3000030518,9.78999996185,7.57000017166,13.1000003815,12.6400003433
"2003-05-05 10:00:00",14.1000003815,0.381000012159,95.6999969482,9.82999992371,7.55999994278,13.3000001907,12.4899997711
"2003-05-05 11:00:00",14.1300001144,0.377999991179,98.0,10.0600004196,7.57000017166,13.6999998093,12.8000001907
"2003-05-05 12:00:00",14.1000003815,0.377000004053,97.6999969482,10.0399999619,7.57999992371,14.3000001907,12.5500001907
"2003-05-05 13:00:00",14.0900001526,0.374000012875,97.5999984741,10.029999733,7.59000015259,14.5,12.5
"2003-05-05 14:00:00",15.3299999237,0.173999994993,105.0,10.5100002289,7.44000005722,522.400024414,13.0
"2003-05-05 15:00:00",15.3900003433,0.10000000149,94.0,9.39999961853,7.17999982834,457.5,12.8900003433
"2003-05-05 16:00:00",15.1999998093,0.103000000119,92.6999969482,9.30000019073,7.0,382.600006104,12.7899999619
"2003-05-05 17:00:00",15.0900001526,0.115000002086,82.5999984741,8.31000041962,6.92000007629,316.600006104,12.7399997711
"2003-05-05 18:00:00",15.029999733,0.128999993205,82.0,8.26000022888,6.90000009537,345.100006104,12.6599998474
"2003-05-05 19:00:00",14.970000267,0.143999993801,81.1999969482,8.18999958038,6.90999984741,387.299987793,12.6099996567
"2003-05-05 20:00:00",14.9099998474,0.158000007272,76.6999969482,7.73999977112,6.94999980927,390.200012207,12.5600004196
"2003-05-05 21:00:00",14.8100004196,0.180999994278,76.0999984741,7.69999980927,6.94999980927,320.100006104,12.4899997711
"2003-05-05 22:00:00",14.7700004578,0.197999998927,76.4000015259,7.73999977112,6.94999980927,273.399993896,12.4399995804
"2003-05-05 23:00:00",14.75,0.206000000238,77.0,7.80000019073,6.96999979019,277.100006104,12.4200000763
"2003-05-06 00:00:00",14.7100000381,0.221000000834,81.1999969482,8.22999954224,6.98999977112,208.899993896,12.4200000763
"2003-05-06 01:00:00",14.6999998093,0.232999995351,78.9000015259,8.0,7.03000020981,153.5,12.4200000763
"2003-05-06 02:00:00",14.6899995804,0.238999992609,87.0,8.82999992371,7.05000019073,131.899993896,12.4099998474
"2003-05-06 03:00:00",15.0799999237,0.0599999986589,104.400001526,10.5100002289,7.11999988556,1373.0,12.4099998474
"2003-05-06 04:00:00",15.1499996185,0.0810000002384,98.5,9.89999961853,6.98000001907,1054.0,12.4099998474
"2003-05-06 05:00:00",15.4799995422,0.116999998689,100.699996948,10.0399999619,7.03000020981,466.700012207,12.4099998474
"2003-05-06 06:00:00",15.7399997711,0.107000000775,98.5,9.77999973297,7.09000015259,149.399993896,12.3999996185
"2003-05-06 07:00:00",16.0599994659,0.104999996722,98.5,9.71000003815,7.0,145.199996948,12.3999996185
"2003-05-06 08:00:00",16.0499992371,0.115999996662,98.5,9.71000003815,6.98000001907,121.5,12.4099998474
"2003-05-06 09:00:00",16.1299991608,0.125,97.3000030518,9.57999992371,6.96999979019,106.0,12.6300001144
"2003-05-06 10:00:00",16.2700004578,0.142000004649,96.3000030518,9.44999980927,7.01000022888,96.4000015259,13.1199998856
"2003-05-06 11:00:00",16.5799999237,0.159999996424,95.0999984741,9.27000045776,7.05999994278,80.4000015259,13.2600002289
"2003-05-06 12:00:00",16.9500007629,0.179000005126,94.5,9.14000034332,7.09999990463,74.6999969482,13.2100000381
"2003-05-06 13:00:00",17.2099990845,0.197999998927,95.4000015259,9.18000030518,7.11999988556,66.5999984741,12.9099998474
"2003-05-06 14:00:00",17.3299999237,0.212999999523,95.1999969482,9.13000011444,7.15999984741,61.0999984741,12.9799995422
"2003-05-06 15:00:00",17.5100002289,0.222000002861,95.5,9.13000011444,7.21000003815,60.2999992371,12.9300003052
"2003-05-06 16:00:00",17.6700000763,0.231999993324,93.9000015259,8.94999980927,7.23999977112,56.2999992371,12.8400001526
"2003-05-06 17:00:00",17.7800006866,0.248999997973,93.6999969482,8.89999961853,7.25,49.9000015259,12.8100004196
"2003-05-06 18:00:00",17.7700004578,0.264999985695,92.5999984741,8.80000019073,7.26000022888,49.0,12.6999998093
"2003-05-06 19:00:00",17.7299995422,0.268999993801,84.3000030518,8.02000045776,7.30000019073,47.4000015259,12.6800003052
"2003-05-06 20:00:00",17.6399993896,0.268999993801,85.0999984741,8.10999965668,7.30000019073,32.2999992371,12.6599998474
"2003-05-06 21:00:00",17.5,0.270000010729,90.6999969482,8.67000007629,7.30000019073,30.6000003815,12.6400003433
"2003-05-06 22:00:00",17.3799991608,0.27500000596,90.0999984741,8.63000011444,7.32000017166,27.3999996185,12.6300001144
"2003-05-06 23:00:00",17.2999992371,0.280000001192,90.0999984741,8.64999961853,7.32000017166,24.7000007629,12.6199998856
"2003-05-07 00:00:00",17.2199993134,0.284000009298,86.9000015259,8.35000038147,7.32000017166,23.7000007629,12.6099996567
"2003-05-07 01:00:00",17.1100006104,0.28900000453,89.8000030518,8.65999984741,7.32999992371,21.6000003815,12.6000003815
"2003-05-07 02:00:00",17.0200004578,0.291999995708,90.0999984741,8.69999980927,7.34000015259,20.1000003815,12.5799999237
"2003-05-07 03:00:00",16.9400005341,0.293999999762,87.5,8.46000003815,7.36999988556,19.8999996185,12.5699996948
"2003-05-07 04:00:00",16.8899993896,0.296000003815,90.1999969482,8.73999977112,7.36000013351,18.0,12.5600004196
"2003-05-07 05:00:00",16.8400001526,0.29699999094,89.6999969482,8.68999958038,7.36999988556,16.0,12.5600004196
"2003-05-07 06:00:00",16.8099994659,0.29699999094,90.9000015259,8.81000041962,7.36999988556,17.2999992371,12.5399999619
"2003-05-07 07:00:00",16.7800006866,0.296000003815,91.5999984741,8.89000034332,7.36000013351,13.5,12.529999733
"2003-05-07 08:00:00",16.8099994659,0.294999986887,91.4000015259,8.86999988556,7.38000011444,13.1000003815,12.5200004578
"2003-05-07 09:00:00",16.8899993896,0.294999986887,92.3000030518,8.93999958038,7.38999986649,11.3000001907,12.7100000381
"2003-05-07 10:00:00",17.0100002289,0.296000003815,93.5999984741,9.03999996185,7.38999986649,11.3000001907,12.6300001144
"2003-05-07 11:00:00",17.25,0.294999986887,94.0999984741,9.03999996185,7.40999984741,11.8999996185,13.220000267
"2003-05-07 12:00:00",17.7600002289,0.29699999094,95.6999969482,9.10000038147,7.42000007629,11.8000001907,13.1000003815
"2003-05-07 13:00:00",18.2700004578,0.29699999094,97.1999969482,9.14999961853,7.42999982834,11.3000001907,13.1400003433
"2003-05-07 14:00:00",19.0200004578,0.298999994993,98.1999969482,9.10000038147,7.44000005722,12.3999996185,13.1000003815
"2003-05-07 15:00:00",19.9699993134,0.298999994993,94.9000015259,8.61999988556,7.44000005722,12.8999996185,13.0500001907
"2003-05-07 16:00:00",20.1000003815,0.294999986887,96.0,8.71000003815,7.42999982834,18.3999996185,12.9200000763
"2003-05-07 17:00:00",20.0,0.289999991655,93.6999969482,8.51000022888,7.42000007629,31.8999996185,12.779999733
"2003-05-07 18:00:00",19.7999992371,0.291000008583,84.8000030518,7.73999977112,7.40999984741,40.4000015259,12.7399997711
"2003-05-07 19:00:00",19.6299991608,0.296000003815,82.1999969482,7.51999998093,7.38999986649,46.5,12.6899995804
"2003-05-07 20:00:00",19.4899997711,0.307000011206,86.8000030518,7.96000003815,7.40000009537,48.0999984741,12.6700000763
"2003-05-07 21:00:00",19.3799991608,0.312999993563,81.0,7.44999980927,7.40000009537,65.9000015259,12.6599998474
"2003-05-07 22:00:00",19.2600002289,0.31099998951,80.3000030518,7.40000009537,7.38000011444,78.8000030518,12.6400003433
"2003-05-07 23:00:00",19.1599998474,0.308999985456,81.9000015259,7.57000017166,7.36999988556,69.8000030518,12.6199998856
"2003-05-08 00:00:00",19.0599994659,0.307999998331,85.0,7.86999988556,7.34000015259,46.0,12.6199998856
"2003-05-08 01:00:00",18.9099998474,0.310000002384,83.0,7.71000003815,7.34000015259,37.5999984741,12.6000003815
"2003-05-08 02:00:00",18.7999992371,0.31400001049,81.9000015259,7.61999988556,7.32999992371,35.5999984741,12.5799999237
"2003-05-08 03:00:00",18.6800003052,0.324000000954,84.3000030518,7.86000013351,7.34000015259,35.9000015259,12.5600004196
"2003-05-08 04:00:00",18.5400009155,0.34999999404,83.9000015259,7.84000015259,7.36000013351,33.5,12.5500001907
"2003-05-08 05:00:00",18.3899993896,0.391000002623,84.5,7.92999982834,7.36999988556,28.1000003815,12.529999733
"2003-05-08 06:00:00",18.2900009155,0.418000012636,85.5,8.03999996185,7.38999986649,21.7999992371,12.5200004578
"2003-05-08 07:00:00",18.1399993896,0.419999986887,87.3000030518,8.22999954224,7.38999986649,18.2000007629,12.5100002289
"2003-05-08 08:00:00",18.0699996948,0.407000005245,89.9000015259,8.48999977112,7.40000009537,15.1000003815,12.5
"2003-05-08 09:00:00",18.1100006104,0.388000011444,90.8000030518,8.56999969482,7.40999984741,15.6000003815,12.5600004196
"2003-05-08 10:00:00",18.3799991608,0.358999997377,93.6999969482,8.80000019073,7.42999982834,13.8999996185,13.1899995804
"2003-05-08 11:00:00",18.8799991608,0.345999985933,95.1999969482,8.84000015259,7.44999980927,12.6000003815,13.1099996567
"2003-05-08 12:00:00",19.7299995422,0.337999999523,97.0,8.85999965668,7.44999980927,24.1000003815,13.0500001907
"2003-05-08 13:00:00",20.4200000763,0.33599999547,93.9000015259,8.46000003815,7.44999980927,10.8999996185,13.0100002289
"2003-05-08 14:00:00",21.2900009155,0.333000004292,94.8000030518,8.39000034332,7.48999977112,12.1999998093,13.0
"2003-05-08 15:00:00",21.8999996185,0.330000013113,96.5,8.44999980927,7.44000005722,10.6000003815,12.9600000381
"2003-05-08 16:00:00",21.9899997711,0.326000005007,94.3000030518,8.23999977112,7.40999984741,11.1999998093,12.8400001526
"2003-05-08 17:00:00",21.8199996948,0.330000013113,92.5,8.10999965668,7.42000007629,12.1999998093,12.7899999619
"2003-05-08 18:00:00",21.4699993134,0.333000004292,85.8000030518,7.57000017166,7.38999986649,13.5,12.7299995422
"2003-05-08 19:00:00",21.1000003815,0.331999987364,84.1999969482,7.48999977112,7.38999986649,14.1000003815,12.6899995804
"2003-05-08 20:00:00",20.8299999237,0.32800000906,84.0,7.51000022888,7.36999988556,13.0,12.6700000763
"2003-05-08 21:00:00",20.6599998474,0.32800000906,78.1999969482,7.01000022888,7.34000015259,12.6999998093,12.6499996185
"2003-05-08 22:00:00",20.4500007629,0.331999987364,83.1999969482,7.48999977112,7.34999990463,12.1999998093,12.6199998856
"2003-05-08 23:00:00",20.25,0.340000003576,79.8000030518,7.21000003815,7.36000013351,19.7999992371,12.6099996567
"2003-05-09 00:00:00",20.0300006866,0.349000006914,87.6999969482,7.96000003815,7.36999988556,11.3000001907,12.5900001526
"2003-05-09 01:00:00",19.8199996948,0.354999989271,94.4000015259,8.60000038147,7.44000005722,12.3000001907,12.5699996948
"2003-05-09 02:00:00",19.6299991608,0.361000001431,93.0999984741,8.52000045776,7.46000003815,12.0,12.5600004196
"2003-05-09 03:00:00",19.4400005341,0.365999996662,93.9000015259,8.63000011444,7.46000003815,25.3999996185,12.5399999619
"2003-05-09 04:00:00",19.2199993134,0.368999987841,95.6999969482,8.82999992371,7.48000001907,27.2999992371,12.5200004578
"2003-05-09 05:00:00",19.0400009155,0.363999992609,96.9000015259,8.97000026703,7.48000001907,21.8999996185,12.5
"2003-05-09 06:00:00",18.8700008392,0.361000001431,97.0,9.01000022888,7.48999977112,12.5,12.4899997711
"2003-05-09 07:00:00",18.7600002289,0.363999992609,96.0,8.93999958038,7.48999977112,12.5,12.4799995422
"2003-05-09 08:00:00",18.6800003052,0.365000009537,98.4000015259,9.17000007629,7.48999977112,10.6000003815,12.5
"2003-05-09 09:00:00",18.7999992371,0.365000009537,101.300003052,9.42000007629,7.51000022888,9.39999961853,12.8900003433
"2003-05-09 10:00:00",19.0100002289,0.356999993324,104.099998474,9.64999961853,7.53000020981,7.80000019073,12.9399995804
"2003-05-09 11:00:00",19.4300003052,0.342000007629,104.900001526,9.64000034332,7.55999994278,7.40000009537,13.1099996567